Flag for Dominican Republic Weather past 2 weeks in Punta Cana, Dominican Republic

Now
72 °F

Partly cloudy.


Feels Like: 69 °F
Forecast: 73 / 83 °F
Wind: 5 mph from South

Location: Punta Cana

Current Time: Jan 28, 2015 at 12:16:24 AM

Latest Report: Jan 27, 2015 at 11:00 PM


Visibility: N/A

Pressure: 30.04 "Hg

Humidity: 88%

Dew point: 68 °F

Location of Punta CanaLocation

Historic Weather in Punta Cana — Graph

°F

Punta Cana temperature yesterday

Maximum temperature yesterday: 86 °F (at 12:00 PM)
Minimum temperature yesterday: 72 °F (at 7:00 PM)
Average temperature yesterday: 78 °F

Past Weeks' High & Low Weather Summary

 TemperatureHumidityPressure
High99 °F (Jan 17, 4:00 PM)100% (Jan 15, 6:00 AM)30.09 "Hg (Jan 15, 6:00 AM)
Low63 °F (Jan 21, 5:00 AM)44% (Jan 17, 4:00 PM)29.95 "Hg (Jan 14, 3:00 PM)
Average77 °F80%30.01 "Hg
* Reported Jan 12 11:00 PM — Jan 27 11:00 PM, Punta Cana, Weather by CustomWeather, © 2014

Note: Actual official high and low records may vary slightly from our data, if they occured in-between our weather recording intervals... More about our weather records

Advertising

Punta Cana weather history for previous 24 hours

 ConditionsComfort  
Time TempWeatherWind HumidityBarometerVisibility
11:00 PM
Jan 27
72 °FPartly cloudy.5 mph88%30.04 "HgN/A
10:00 PM72 °FLight rain. Partly cloudy.6 mph94%30.04 "Hg5 mi
9:00 PM73 °FLight rain. Partly cloudy.5 mph94%30.04 "Hg5 mi
8:00 PM73 °FLight rain. Partly cloudy.5 mph89%29.98 "Hg5 mi
7:00 PM72 °FLight rain. Partly cloudy.7 mph94%29.98 "Hg5 mi
6:00 PM77 °FRain. Partly sunny.6 mph83%29.98 "HgN/A
5:00 PM79 °FBroken clouds.12 mph74%29.95 "HgN/A
4:00 PM77 °FScattered clouds.12 mph83%29.95 "HgN/A
3:00 PM79 °FBroken clouds.12 mph84%29.95 "HgN/A
2:00 PM79 °FLight rain. Partly sunny.13 mph84%29.98 "Hg5 mi
1:00 PM84 °FBroken clouds.9 mph70%30.01 "HgN/A
12:00 PM86 °FScattered clouds.12 mph66%30.01 "HgN/A
11:00 AM84 °FScattered clouds.8 mph70%30.04 "HgN/A
10:00 AM84 °FScattered clouds.8 mph70%30.04 "HgN/A
9:00 AM81 °FScattered clouds.10 mph79%30.01 "HgN/A
8:00 AM79 °FScattered clouds.7 mph84%29.98 "HgN/A
7:00 AM77 °FPassing clouds.7 mph83%29.98 "HgN/A
6:00 AM79 °FPassing clouds.7 mph84%29.95 "HgN/A
5:00 AM79 °FPassing clouds.7 mph84%29.95 "HgN/A
4:00 AM77 °FPassing clouds.6 mph83%29.95 "HgN/A
3:00 AM77 °FPassing clouds.6 mph83%29.95 "HgN/A
2:00 AM77 °FPassing clouds.6 mph89%29.98 "HgN/A
1:00 AM77 °FPassing clouds.5 mph83%29.98 "HgN/A
12:00 AM79 °FPassing clouds.9 mph79%30.01 "HgN/A
Weather by CustomWeather, © 2014

See weather overviewHow to use our weather pages